Regional Weather Roundup
Issued by NWS Cleveland, OH

Home | Current Version | Previous Version | Text Only | Print | Product List | Glossary Off
Versions: 1 2 3 4 5 6 7 8 9 10 11 12 13 14 15 16 17 18 19 20 21 22 23 24 25 26 27 28 29 30 31 32 33 34 35 36 37 38 39 40 41 42 43 44 45 46 47 48 49 50

000
ASUS41 KCLE 171902
RWRCLE
OHIO REGIONAL WEATHER ROUNDUP
NATIONAL WEATHER SERVICE CLEVELAND, OH
200 PM EST FRI NOV 17 2017

NOTE: "FAIR" INDICATES FEW OR NO CLOUDS BELOW 12,000 FEET WITH NO
SIGNIFICANT WEATHER AND/OR OBSTRUCTIONS TO VISIBILITY.

OHZ001>008-015>018-024>027-034-035-043-044-172000-
   NORTHWEST OHIO

CITY           SKY/WX    TMP DP  RH WIND       PRES   REMARKS
DEFIANCE       MOSUNNY   44  32  62 S14       30.06F
FINDLAY        MOSUNNY   45  32  60 S15       30.07F
TOLEDO EXPRESS MOSUNNY   43  33  68 SE10      30.07F
TOLEDO EXEC    MOSUNNY   43  31  62 S16       30.09F
LIMA           CLOUDY    45  34  65 SE14      30.07F
$$

OHZ009>014-019>023-028>033-038-089-172000-
   NORTHEAST OHIO

CITY           SKY/WX    TMP DP  RH WIND       PRES   REMARKS
CLE-HOPKINS    PTSUNNY   46  30  53 S10       30.16F
CLE-LAKEFRONT  CLOUDY    46  28  49 SE12      30.13F
CUY CO. ARPT   PTSUNNY   45  30  57 S14       30.15F
LORAIN-ELYRIA  SUNNY     43  27  53 S13       30.14F
ASHTABULA      SUNNY     42  29  59 S8        30.16F
AKRON-CANTON   CLOUDY    43  28  55 S9        30.14F
WOOSTER        CLOUDY    43  30  60 SE13G20   30.13F
MANSFIELD      SUNNY     43  30  60 SE10      30.11F
YOUNGSTOWN     CLOUDY    41  28  60 SE9       30.16F
$$

OHZ042-051>053-060>062-070>072-077>081-172000-
  SOUTHWEST OHIO

CITY           SKY/WX    TMP DP  RH WIND       PRES   REMARKS
CINC-COVINGTON PTSUNNY   49  36  61 SE8       30.08F
CINC-LUNKEN    SUNNY     49  34  56 E7        30.11F
HAMILTON       SUNNY     49  33  54 VRB3      30.10F
DAYTON         PTSUNNY   46  34  62 SE13      30.08F
WRIGHT-PAT AFB SUNNY     48  31  52 SE9       30.09F
DAYTON GENERAL SUNNY     47  33  58 S12       30.08F
WILMINGTON     SUNNY     47  34  60 SE10      30.10F
$$

OHZ036-037-039>041-045>050-054>059-063>069-073>076-082>088-172000-
  CENTRAL AND SOUTHEAST OHIO

CITY           SKY/WX    TMP DP  RH WIND       PRES   REMARKS
COLUMBUS       MOSUNNY   47  32  56 SE9       30.12F
OSU AIRPORT    SUNNY     46  33  60 SE12G20   30.11F
BOLTON FIELD   SUNNY     46  34  61 SE10      30.13F
RICKENBACK AFB SUNNY     46  32  56 SE9       30.13F
NEWARK         CLOUDY    46  28  49 S3        30.13F
MARION         SUNNY     45  32  60 S12G20    30.10F
LANCASTER      SUNNY     47  33  58 SE9       30.13F
ZANESVILLE     CLOUDY    45  29  53 S5        30.16F
NEW PHILLY     NOT AVBL
$$




USA.gov is the U.S. government's official web portal to all federal, state and local government web resources and services.